Naples, Italy

3:11 AM CEST on August 31, 2016 (GMT +0200)
Capodichino Mil

Weather History for LIRN - April, 2013

Change the Weather History Date:

Tuesday, April 23, 2013

  Actual Average Record
Temperature  
Mean Temperature 60 °F -  
Max Temperature 69 °F 71 °F 73 °F (2007)
Min Temperature 51 °F 52 °F 41 °F (2001)
Degree Days  
Heating Degree Days 5    
Growing Degree Days 10 (Base 50)    
Moisture  
Dew Point 48 °F    
Average Humidity 61    
Maximum Humidity 82    
Minimum Humidity 37    
Precipitation  
Precipitation 0.00 in 0.07 in - ()
Sea Level Pressure  
Sea Level Pressure 30.13 in    
Wind  
Wind Speed 4 mph ()    
Max Wind Speed 12 mph    
Max Gust Speed -    
Visibility 6.2 miles    
Events      
Averages and records for this station are not official NWS values.
T = Trace of Precipitation, MM = Missing Value Source: Averaged Metar Reports

Daily Weather History Graph

Daily Weather History Graph

Search for Another Location

Airport or City:

Trip Planner

Search our weather history database for the weather conditions in past years. The results will help you decide how hot, cold, wet, or windy it might be!

Date:

Astronomy

Apr. 23, 2013 Rise Set
Actual Time 6:12 AM CEST 7:50 PM CEST
Civil Twilight 5:42 AM CEST 8:20 PM CEST
Nautical Twilight 5:07 AM CEST 8:55 PM CEST
Astronomical Twilight 4:30 AM CEST 9:33 PM CEST
Moon 5:25 PM CEST (4/23) 4:31 AM CEST (4/23)
Length of Visible Light 14h 37m
Length of Day
13h 38m
Waxing Gibbous, 92% of the Moon is Illuminated
Apr 23
Waxing Gibbous
Apr 25
Full
May 2
Last Quarter
May 10
New
May 18
First Quarter

Hourly Weather History & Observations

Time (CEST) Temp. Dew Point Humidity Pressure Visibility Wind Dir Wind Speed Gust Speed Precip Events Conditions
12:20 AM 55.4 °F 48.2 °F 77% 30.04 in 6.2 mi NNW 3.5 mph - N/A   Partly Cloudy
12:50 AM 55.4 °F 46.4 °F 72% 30.04 in 6.2 mi NNE 3.5 mph - N/A   Partly Cloudy
1:20 AM 55.4 °F 46.4 °F 72% 30.06 in 6.2 mi NNE 2.3 mph - N/A   Partly Cloudy
1:50 AM 53.6 °F 48.2 °F 82% 30.04 in 6.2 mi NNE 3.5 mph - N/A   Partly Cloudy
2:20 AM 53.6 °F 46.4 °F 77% 30.04 in 6.2 mi NNE 3.5 mph - N/A   Partly Cloudy
2:50 AM 55.4 °F 46.4 °F 72% 30.04 in 6.2 mi North 3.5 mph - N/A   Partly Cloudy
3:20 AM 53.6 °F 46.4 °F 77% 30.04 in 6.2 mi NNE 3.5 mph - N/A   Partly Cloudy
3:50 AM 53.6 °F 46.4 °F 77% 30.04 in 6.2 mi North 3.5 mph - N/A   Partly Cloudy
4:20 AM 53.6 °F 46.4 °F 77% 30.06 in 6.2 mi North 3.5 mph - N/A   Partly Cloudy
4:50 AM 51.8 °F 44.6 °F 76% 30.06 in 6.2 mi NE 4.6 mph - N/A   Partly Cloudy
6:50 AM 53.6 °F 44.6 °F 72% 30.06 in - North 4.6 mph - N/A   Clear
7:20 AM 53.6 °F 44.6 °F 72% 30.09 in - Variable 3.5 mph - N/A   Clear
7:50 AM 55.4 °F 46.4 °F 72% 30.09 in - North 3.5 mph - N/A   Clear
8:20 AM 57.2 °F 46.4 °F 67% 30.09 in - North 3.5 mph - N/A   Clear
8:50 AM 59.0 °F 46.4 °F 63% 30.12 in - North 4.6 mph - N/A   Clear
9:20 AM 60.8 °F 44.6 °F 55% 30.12 in - NNE 3.5 mph - N/A   Clear
9:50 AM 62.6 °F 44.6 °F 52% 30.12 in - Variable 2.3 mph - N/A   Clear
10:20 AM 64.4 °F 44.6 °F 49% 30.12 in - NNE 3.5 mph - N/A   Clear
10:50 AM 64.4 °F 42.8 °F 45% 30.15 in - Variable 4.6 mph - N/A   Clear
11:20 AM 66.2 °F 42.8 °F 43% 30.15 in - Variable 2.3 mph - N/A   Clear
11:50 AM 68.0 °F 44.6 °F 43% 30.15 in - WNW 5.8 mph - N/A   Clear
12:20 PM 68.0 °F 42.8 °F 40% 30.15 in - South 6.9 mph - N/A   Clear
12:50 PM 68.0 °F 41.0 °F 37% 30.15 in - South 5.8 mph - N/A   Clear
1:20 PM 68.0 °F 42.8 °F 40% 30.15 in 6.2 mi South 6.9 mph - N/A   Partly Cloudy
1:50 PM 69.8 °F 44.6 °F 40% 30.15 in 6.2 mi South 6.9 mph - N/A   Partly Cloudy
2:20 PM 69.8 °F 46.4 °F 43% 30.15 in 6.2 mi SW 4.6 mph - N/A   Partly Cloudy
2:50 PM 66.2 °F 48.2 °F 52% 30.15 in 6.2 mi SSW 9.2 mph - N/A   Scattered Clouds
3:20 PM 68.0 °F 51.8 °F 56% 30.15 in 6.2 mi South 8.1 mph - N/A   Mostly Cloudy
3:50 PM 68.0 °F 51.8 °F 56% 30.15 in 6.2 mi South 8.1 mph - N/A   Mostly Cloudy
4:20 PM 68.0 °F 51.8 °F 56% 30.15 in 6.2 mi SSW 8.1 mph - N/A   Scattered Clouds
4:50 PM - - N/A% - - SSW 8.1 mph - N/A   Unknown
5:20 PM 68.0 °F 51.8 °F 56% 30.15 in 6.2 mi South 6.9 mph - N/A   Scattered Clouds
5:50 PM 68.0 °F 51.8 °F 56% 30.15 in 6.2 mi SSW 5.8 mph - N/A   Scattered Clouds
6:20 PM 66.2 °F 51.8 °F 60% 30.15 in 6.2 mi South 4.6 mph - N/A   Scattered Clouds
6:50 PM 66.2 °F 51.8 °F 60% 30.15 in 6.2 mi SSW 5.8 mph - N/A   Scattered Clouds
7:20 PM 66.2 °F 50.0 °F 56% 30.18 in 6.2 mi SSW 4.6 mph - N/A   Scattered Clouds
7:50 PM 66.2 °F 50.0 °F 56% 30.18 in 6.2 mi Variable 2.3 mph - N/A   Scattered Clouds
8:20 PM 66.2 °F 50.0 °F 56% 30.18 in 6.2 mi North 3.5 mph - N/A   Scattered Clouds
8:50 PM 64.4 °F 55.4 °F 73% 30.21 in 6.2 mi North 6.9 mph - N/A   Scattered Clouds
9:20 PM 64.4 °F 51.8 °F 64% 30.21 in 6.2 mi North 11.5 mph - N/A   Scattered Clouds
9:50 PM 62.6 °F 51.8 °F 68% 30.21 in 6.2 mi North 9.2 mph - N/A   Scattered Clouds
10:20 PM 62.6 °F 51.8 °F 68% 30.21 in 6.2 mi North 5.8 mph - N/A   Scattered Clouds
10:50 PM 62.6 °F 51.8 °F 68% 30.21 in 6.2 mi North 4.6 mph - N/A   Scattered Clouds
11:20 PM 62.6 °F 51.8 °F 68% 30.24 in 6.2 mi North 4.6 mph - N/A   Scattered Clouds
11:50 PM 62.6 °F 51.8 °F 68% 30.24 in 6.2 mi North 4.6 mph - N/A   Scattered Clouds